Shreveport Downtown, LA

6:50 AM CST on December 17, 2017 (GMT -0600)
Shreveport Downtown

Weather History for KDTN - January, 2013

Change the Weather History Date:

Wednesday, January 30, 2013

  Actual Average (KBAD) Record (KBAD)
Temperature  
Mean Temperature 47 °F -  
Max Temperature 55 °F 54 °F 78 °F (2002)
Min Temperature 36 °F 36 °F 19 °F (2014)
Degree Days  
Heating Degree Days 18    
Moisture  
Dew Point 35 °F    
Average Humidity 63    
Maximum Humidity 93    
Minimum Humidity 43    
Precipitation  
Precipitation 0.01 in - - ()
Sea Level Pressure  
Sea Level Pressure 29.91 in    
Wind  
Wind Speed 9 mph (West)    
Max Wind Speed 24 mph    
Max Gust Speed 34 mph    
Visibility 10 miles    
Events      
Averages and records for this station are not official NWS values.
T = Trace of Precipitation, MM = Missing Value Source: NWS Daily Summary

Daily Weather History Graph

Daily Weather History Graph

Search for Another Location

Airport or City:

Trip Planner

Search our weather history database for the weather conditions in past years. The results will help you decide how hot, cold, wet, or windy it might be!

Date:

Astronomy

Jan. 30, 2013 Rise Set
Actual Time 7:10 AM CST 5:46 PM CST
Civil Twilight 6:44 AM CST 6:12 PM CST
Nautical Twilight 6:15 AM CST 6:41 PM CST
Astronomical Twilight 5:46 AM CST 7:10 PM CST
Moon 9:28 PM CST (1/30) 8:54 AM CST (1/30)
Length of Visible Light 11h 27m
Length of Day
10h 35m
Waning Gibbous, 87% of the Moon is Illuminated
Jan 30
Waning Gibbous
Feb 3
Last Quarter
Feb 10
New
Feb 17
First Quarter
Feb 25
Full

Hourly Weather History & Observations

Time (CST) Temp. Windchill Dew Point Humidity Pressure Visibility Wind Dir Wind Speed Gust Speed Precip Events Conditions
12:53 AM 53.1 °F - 51.1 °F 93% 29.67 in 10.0 mi Calm Calm - 0.01 in   Mostly Cloudy
1:53 AM 55.0 °F - 53.1 °F 93% 29.69 in 10.0 mi SW 5.8 mph - 0.00 in   Overcast
2:53 AM 55.0 °F - 52.0 °F 89% 29.69 in 10.0 mi SSW 10.4 mph - N/A   Overcast
3:53 AM 55.0 °F - 51.1 °F 86% 29.68 in 10.0 mi WSW 5.8 mph - N/A   Overcast
4:53 AM 54.0 °F - 48.0 °F 80% 29.68 in 10.0 mi WSW 8.1 mph - N/A   Overcast
5:53 AM 52.0 °F - 42.1 °F 69% 29.71 in 10.0 mi WSW 10.4 mph - N/A   Mostly Cloudy
6:53 AM 52.0 °F - 37.9 °F 59% 29.73 in 10.0 mi WSW 10.4 mph - N/A   Overcast
7:53 AM 51.1 °F - 35.1 °F 54% 29.76 in 10.0 mi West 16.1 mph 26.5 mph N/A   Scattered Clouds
8:53 AM 48.9 °F - 36.0 °F 61% 29.79 in 10.0 mi WNW 13.8 mph 23.0 mph N/A   Mostly Cloudy
9:53 AM 48.9 °F - 37.9 °F 66% 29.83 in 10.0 mi WNW 11.5 mph 21.9 mph N/A   Mostly Cloudy
10:53 AM 46.9 °F - 35.1 °F 63% 29.90 in 10.0 mi NW 18.4 mph 28.8 mph N/A   Overcast
11:53 AM 48.0 °F - 30.0 °F 50% 29.92 in 10.0 mi West 24.2 mph 34.5 mph N/A   Mostly Cloudy
12:53 PM 45.0 °F 38.5 °F 30.9 °F 58% 29.96 in 10.0 mi WNW 13.8 mph 32.2 mph N/A   Overcast
1:53 PM 48.0 °F - 28.9 °F 48% 29.97 in 10.0 mi WNW 16.1 mph 31.1 mph N/A   Overcast
2:53 PM 50.0 °F - 28.9 °F 44% 29.99 in 10.0 mi WNW 21.9 mph 32.2 mph N/A   Mostly Cloudy
3:53 PM 51.1 °F - 28.9 °F 43% 30.01 in 10.0 mi NW 13.8 mph 20.7 mph N/A   Mostly Cloudy
4:53 PM 48.9 °F - 27.0 °F 43% 30.04 in 10.0 mi WNW 12.7 mph 24.2 mph N/A   Scattered Clouds
5:53 PM 46.0 °F 41.4 °F 27.0 °F 47% 30.06 in 10.0 mi WNW 9.2 mph - N/A   Clear
6:53 PM 43.0 °F 40.3 °F 25.0 °F 49% 30.10 in 10.0 mi West 4.6 mph - N/A   Clear
7:53 PM 43.0 °F 41.3 °F 26.1 °F 51% 30.12 in 10.0 mi West 3.5 mph - N/A   Clear
8:53 PM 41.0 °F 39.0 °F 28.0 °F 60% 30.12 in 10.0 mi West 3.5 mph - N/A   Clear
9:53 PM 39.9 °F 34.5 °F 28.0 °F 63% 30.14 in 10.0 mi WNW 8.1 mph - N/A   Clear
10:53 PM 39.0 °F 35.7 °F 28.0 °F 65% 30.16 in 10.0 mi West 4.6 mph - N/A   Clear
11:53 PM 36.0 °F 33.3 °F 28.0 °F 73% 30.15 in 10.0 mi WSW 3.5 mph - N/A   Clear